Tiempo cada hora Chiquimula

Hoy, 4 Diciembre, Viernes

Tiempo Temperatura Precipitaciones Viento Presión Humedad
00:00 +21°C° 0 mm 1 mps 708 mmHg 97%
01:00 +21°C° 0 mm 1 mps 708 mmHg 97%
02:00 +21°C° 0 mm 1 mps 708 mmHg 97%
03:00 +21°C° 0 mm 1 mps 708 mmHg 97%
04:00 +21°C° 0 mm 1 mps 708 mmHg 97%
05:00 +21°C° 0 mm 1 mps 708 mmHg 97%
06:00 +20°C° 0 mm 1 mps 708 mmHg 97%
07:00 +22°C° 0 mm 1 mps 709 mmHg 91%
08:00 +23°C° 0 mm 1 mps 709 mmHg 86%
09:00 +24°C° 0 mm 1 mps 710 mmHg 81%
10:00 +25°C° 0 mm 1 mps 710 mmHg 78%
11:00 +26°C° 0 mm 1 mps 709 mmHg 75%
12:00 +27°C° 0 mm 1 mps 709 mmHg 72%
13:00 +27°C° 0 mm 2 mps 708 mmHg 72%
14:00 +27°C° 0 mm 2 mps 708 mmHg 71%
15:00 +27°C° 0 mm 2 mps 707 mmHg 71%
16:00 +26°C° 0 mm 2 mps 707 mmHg 78%
17:00 +24°C° 0 mm 1 mps 708 mmHg 84%
18:00 +23°C° 0 mm 1 mps 708 mmHg 91%
19:00 +23°C° 0 mm 1 mps 708 mmHg 92%
20:00 +22°C° 0 mm 1 mps 709 mmHg 94%
21:00 +22°C° 0 mm 1 mps 709 mmHg 95%
22:00 +21°C° 0 mm 1 mps 709 mmHg 95%
23:00 +21°C° 0 mm 1 mps 709 mmHg 96%

Mañana, 5 Diciembre, Sábado

Tiempo Temperatura Precipitaciones Viento Presión Humedad
00:00 +21°C° 0 mm 1 mps 709 mmHg 96%
01:00 +21°C° 0 mm 1 mps 709 mmHg 96%
02:00 +21°C° 0 mm 1 mps 708 mmHg 96%
03:00 +20°C° 0 mm 1 mps 708 mmHg 97%
04:00 +20°C° 0 mm 1 mps 708 mmHg 97%
05:00 +20°C° 0 mm 1 mps 709 mmHg 97%
06:00 +20°C° 0 mm 1 mps 709 mmHg 97%
07:00 +22°C° 0 mm 1 mps 710 mmHg 92%
08:00 +23°C° 0 mm 1 mps 710 mmHg 86%
09:00 +25°C° 0 mm 1 mps 711 mmHg 81%
10:00 +26°C° 0 mm 1 mps 710 mmHg 77%
11:00 +27°C° 0 mm 1 mps 710 mmHg 73%
12:00 +28°C° 0 mm 1 mps 709 mmHg 69%
13:00 +28°C° 0.1 mm 1 mps 709 mmHg 70%
14:00 +28°C° 0.1 mm 1 mps 708 mmHg 71%
15:00 +28°C° 0.1 mm 1 mps 708 mmHg 72%
16:00 +26°C° 0.2 mm 1 mps 708 mmHg 80%
17:00 +25°C° 0.2 mm 1 mps 708 mmHg 87%
18:00 +23°C° 0.2 mm 1 mps 708 mmHg 95%
19:00 +23°C° 0 mm 1 mps 708 mmHg 96%
20:00 +23°C° 0 mm 1 mps 709 mmHg 96%
21:00 +22°C° 0 mm 1 mps 709 mmHg 97%
22:00 +22°C° 0 mm 1 mps 709 mmHg 97%
23:00 +22°C° 0 mm 1 mps 709 mmHg 97%

Pasado mañana, 6 Diciembre, Domingo

Tiempo Temperatura Precipitaciones Viento Presión Humedad
00:00 +22°C° 0 mm 1 mps 709 mmHg 97%
01:00 +22°C° 0 mm 1 mps 708 mmHg 97%
02:00 +20°C° 0 mm 0 mps 708 mmHg 97%
03:00 +19°C° 0 mm 0 mps 707 mmHg 97%
04:00 +19°C° 0 mm 0 mps 708 mmHg 97%
05:00 +19°C° 0 mm 0 mps 708 mmHg 97%
06:00 +19°C° 0 mm 0 mps 708 mmHg 97%
07:00 +22°C° 0 mm 1 mps 708 mmHg 93%
08:00 +24°C° 0 mm 1 mps 709 mmHg 89%
09:00 +25°C° 0 mm 1 mps 710 mmHg 85%
10:00 +26°C° 0.1 mm 1 mps 709 mmHg 80%
11:00 +27°C° 0.1 mm 1 mps 709 mmHg 75%
12:00 +29°C° 0.1 mm 1 mps 708 mmHg 69%
13:00 +28°C° 0.3 mm 1 mps 708 mmHg 73%
14:00 +27°C° 0.3 mm 1 mps 707 mmHg 77%
15:00 +27°C° 0.3 mm 1 mps 706 mmHg 80%
16:00 +25°C° 0.2 mm 1 mps 707 mmHg 85%
17:00 +24°C° 0.2 mm 1 mps 707 mmHg 91%
18:00 +23°C° 0.2 mm 1 mps 707 mmHg 96%
19:00 +23°C° 0 mm 1 mps 708 mmHg 96%
20:00 +22°C° 0 mm 1 mps 708 mmHg 97%
21:00 +22°C° 0 mm 1 mps 709 mmHg 98%
22:00 +22°C° 0 mm 1 mps 709 mmHg 98%
23:00 +21°C° 0 mm 1 mps 708 mmHg 98%

7 Diciembre, Lunes

Tiempo Temperatura Precipitaciones Viento Presión Humedad
00:00 +21°C° 0 mm 1 mps 708 mmHg 98%
01:00 +21°C° 0 mm 1 mps 708 mmHg 98%
02:00 +21°C° 0 mm 1 mps 708 mmHg 98%
03:00 +21°C° 0 mm 1 mps 707 mmHg 97%
04:00 +21°C° 0 mm 1 mps 708 mmHg 97%
05:00 +21°C° 0 mm 1 mps 708 mmHg 97%
06:00 +21°C° 0 mm 1 mps 708 mmHg 97%
07:00 +22°C° 0 mm 1 mps 709 mmHg 93%
08:00 +23°C° 0 mm 1 mps 709 mmHg 90%
09:00 +24°C° 0 mm 1 mps 710 mmHg 86%
10:00 +25°C° 0.1 mm 2 mps 709 mmHg 80%
11:00 +27°C° 0.1 mm 2 mps 709 mmHg 74%
12:00 +28°C° 0.1 mm 2 mps 709 mmHg 68%
13:00 +28°C° 0.1 mm 2 mps 708 mmHg 69%
14:00 +28°C° 0.1 mm 2 mps 708 mmHg 70%
15:00 +27°C° 0.1 mm 2 mps 707 mmHg 71%
16:00 +26°C° 0.1 mm 2 mps 707 mmHg 78%
17:00 +24°C° 0.1 mm 2 mps 708 mmHg 86%
18:00 +21°C° 0.1 mm 2 mps 708 mmHg 94%
19:00 +21°C° 0 mm 2 mps 709 mmHg 95%
20:00 +20°C° 0 mm 2 mps 709 mmHg 96%
21:00 +21°C° 0 mm 1 mps 710 mmHg 97%
22:00 +21°C° 0 mm 1 mps 710 mmHg 97%
23:00 +21°C° 0 mm 1 mps 710 mmHg 97%

8 Diciembre, Martes

Tiempo Temperatura Precipitaciones Viento Presión Humedad
00:00 +21°C° 0 mm 1 mps 710 mmHg 96%
01:00 +20°C° 0 mm 2 mps 709 mmHg 96%
02:00 +20°C° 0 mm 2 mps 709 mmHg 97%
03:00 +20°C° 0 mm 2 mps 709 mmHg 97%
04:00 +19°C° 0 mm 2 mps 709 mmHg 97%
05:00 +19°C° 0 mm 2 mps 709 mmHg 97%
06:00 +19°C° 0 mm 2 mps 710 mmHg 97%
07:00 +19°C° 0 mm 2 mps 710 mmHg 93%
08:00 +20°C° 0 mm 2 mps 711 mmHg 90%
09:00 +21°C° 0 mm 2 mps 711 mmHg 86%
10:00 +23°C° 0.1 mm 2 mps 711 mmHg 83%
11:00 +24°C° 0.1 mm 3 mps 711 mmHg 79%
12:00 +24°C° 0.1 mm 3 mps 711 mmHg 75%
13:00 +24°C° 0.1 mm 3 mps 710 mmHg 75%
14:00 +24°C° 0.1 mm 3 mps 710 mmHg 75%
15:00 +24°C° 0.1 mm 3 mps 710 mmHg 76%
16:00 +22°C° 0 mm 3 mps 710 mmHg 82%
17:00 +20°C° 0 mm 2 mps 710 mmHg 88%
18:00 +19°C° 0 mm 2 mps 710 mmHg 94%
19:00 +18°C° 0 mm 2 mps 711 mmHg 95%
20:00 +18°C° 0 mm 2 mps 711 mmHg 95%
21:00 +17°C° 0 mm 2 mps 712 mmHg 96%
22:00 +17°C° 0 mm 2 mps 712 mmHg 96%
23:00 +17°C° 0 mm 2 mps 712 mmHg 95%

9 Diciembre, Miércoles

Tiempo Temperatura Precipitaciones Viento Presión Humedad
00:00 +17°C° 0 mm 2 mps 711 mmHg 95%
01:00 +17°C° 0 mm 2 mps 711 mmHg 95%
02:00 +17°C° 0 mm 2 mps 711 mmHg 95%
03:00 +17°C° 0 mm 2 mps 711 mmHg 95%
04:00 +17°C° 0 mm 2 mps 711 mmHg 95%
05:00 +17°C° 0 mm 2 mps 711 mmHg 94%
06:00 +17°C° 0 mm 2 mps 711 mmHg 94%
07:00 +18°C° 0 mm 2 mps 712 mmHg 91%
08:00 +18°C° 0 mm 2 mps 712 mmHg 88%
09:00 +19°C° 0 mm 2 mps 713 mmHg 85%
10:00 +20°C° 0 mm 2 mps 712 mmHg 81%
11:00 +21°C° 0 mm 3 mps 712 mmHg 76%
12:00 +22°C° 0 mm 3 mps 712 mmHg 72%
13:00 +22°C° 0 mm 3 mps 711 mmHg 72%
14:00 +22°C° 0 mm 3 mps 710 mmHg 73%
15:00 +22°C° 0 mm 3 mps 710 mmHg 73%
16:00 +21°C° 0 mm 3 mps 710 mmHg 79%
17:00 +19°C° 0 mm 2 mps 710 mmHg 85%
18:00 +18°C° 0 mm 2 mps 710 mmHg 90%
19:00 +17°C° 0 mm 2 mps 711 mmHg 92%
20:00 +17°C° 0 mm 2 mps 711 mmHg 93%
21:00 +17°C° 0 mm 2 mps 712 mmHg 94%
22:00 +16°C° 0 mm 2 mps 711 mmHg 95%
23:00 +16°C° 0 mm 2 mps 711 mmHg 96%
Mostrar más

Necesitamos Su Consentimiento

Meteoprog y nuestros Proveedores de Servicios pueden almacenar y acceder a sus datos personales como cookies, identificadores de dispositivo u otras tecnologías similares de su dispositivo y procesar dichos datos para personalizar contenido y anuncios, además de ofrecer funciones de redes sociales y analizar el tráfico.

  • Almacenar y/o acceder a información en su dispositivo

    Se puede almacenar o acceder a cookies, identificadores de dispositivo u otra información de su dispositivo para los fines anteriormente indicados.

  • Anuncios y contenido personalizados, medición de anuncios y contenido, percepciones del público, y desarrollo de productos

    Los anuncios y el contenido pueden personalizarse en base a su perfil. Se pueden añadir más datos para personalizar mejor los anuncios y contenidos. Se puede medir el rendimiento de los anuncios y contenidos. Se puede obtener la percepción sobre el público que ha visto los anuncios y contenidos. Dichos datos pueden usarse para desarrollar o mejorar la experiencia del usuario, sistemas y software.

Al hacer clic en ‘Estoy De Acuerdo’ usted permitirá el uso de las cookies, identificadores de dispositivo, balizas web u otras tecnologías similares indicadas. Su configuración puede cambiarse desde el navegador de su dispositivo.

Para ciertos fines, los intereses legítimos pueden ser considerados por encima del consentimiento. Puede leer más sobre ello en nuestra Política de Privacidad y Cookies.